DW8947 Weather Reports


time (UTC)temp
F
wind
direction
speed
knots
gust
knots
rain 1hr
in
rain 24hr
in
rain mn
in
humidity
%
barometer
mb
20260902115705 59 85 0.0 1.7 0.00 0.00 0.00 90 1006.0
20260902112204 59 64 0.0 1.7 0.00 0.00 0.00 90 1006.2
20260902111705 59 131 0.0 1.7 0.00 0.00 0.00 90 1006.2
20260902110705 59 117 0.0 1.7 0.00 0.00 0.00 90 1006.2
20260902110205 59 117 0.0 1.7 0.00 0.00 0.00 90 1006.4
20260902105705 59 123 0.0 0.9 0.00 0.00 0.00 90 1006.5
20260902105205 59 123 0.0 1.7 0.00 0.00 0.00 90 1006.4
20260902104205 59 106 0.0 1.7 0.00 0.00 0.00 90 1006.5
20260902103705 59 79 0.0 0.9 0.00 0.00 0.00 90 1006.5
20260902103205 59 140 0.0 1.7 0.00 0.00 0.00 90 1006.4
20260902102704 59 154 0.0 1.7 0.00 0.00 0.00 90 1006.6
20260902101205 59 154 0.0 0.9 0.00 0.00 0.00 90 1006.7
20260902100705 59 153 0.0 1.7 0.00 0.00 0.00 90 1006.7
20260902095205 59 155 0.0 1.7 0.00 0.00 0.00 90 1006.7
20260902094204 59 162 0.0 1.7 0.00 0.00 0.00 89 1006.7
20260902093704 59 162 0.0 1.7 0.00 0.00 0.00 88 1006.7
20260902093204 59 162 0.0 1.7 0.00 0.00 0.00 87 1006.7
20260902085205 60 157 0.0 1.7 0.00 0.00 0.00 86 1007.2
20260902084205 59 156 0.9 1.7 0.00 0.00 0.00 86 1007.3
20260902081705 59 215 0.0 1.7 0.00 0.00 0.00 85 1007.4
20260902075704 60 310 0.0 1.7 0.00 0.00 0.00 86 1007.4
20260902074705 60 141 0.0 0.9 0.00 0.00 0.00 86 1007.5
20260902073704 60 152 0.0 1.7 0.00 0.00 0.00 86 1007.6
20260902072704 60 158 0.9 1.7 0.00 0.00 0.00 86 1007.5
20260902071705 60 165 0.9 1.7 0.00 0.00 0.00 86 1007.4
20260902071205 60 162 0.9 1.7 0.00 0.00 0.00 86 1007.4
20260902070705 60 163 0.0 1.7 0.00 0.00 0.00 87 1007.3
20260902070205 60 162 0.9 1.7 0.00 0.00 0.00 86 1007.4
20260902065704 60 154 0.9 1.7 0.00 0.00 0.00 85 1007.3
20260902062704 60 148 0.0 1.7 0.00 0.00 0.00 87 1007.3
20260902061204 60 93 0.9 1.7 0.00 0.00 0.00 87 1007.2
20260902054204 60 159 0.9 1.7 0.00 0.00 0.00 87 1007.4
20260902053704 60 217 0.0 1.7 0.00 0.00 0.00 87 1007.5
20260902051705 60 167 0.0 1.7 0.00 0.00 0.00 87 1007.6
20260902050705 60 173 0.9 1.7 0.00 0.00 0.00 88 1007.7
20260902045705 60 163 0.0 2.6 0.00 0.00 0.00 88 1007.8
20260902045204 60 105 0.0 1.7 0.00 0.00 0.00 88 1007.8
20260902044205 60 167 0.0 1.7 0.00 0.00 0.00 88 1007.8
20260902043205 60 143 0.9 0.9 0.00 0.00 0.00 87 1007.8
20260902042704 60 148 0.0 1.7 0.00 0.00 0.00 87 1007.8
20260902040204 61 120 0.9 1.7 0.00 0.00 0.00 86 1007.7
20260902035204 61 134 0.0 1.7 0.00 0.00 0.00 85 1007.7
20260902033705 61 121 0.0 1.7 0.00 0.00 0.00 85 1007.6
20260902031704 61 113 0.9 1.7 0.00 0.00 0.00 85 1007.5
20260902031204 61 150 0.9 1.7 0.00 0.00 0.00 85 1007.4
20260902030704 61 155 0.0 1.7 0.00 0.00 0.00 85 1007.4
20260902025704 61 157 0.0 1.7 0.00 0.00 0.00 85 1007.3
20260902024204 62 174 0.0 1.7 0.00 0.00 0.00 84 1007.3
20260902021705 63 111 0.0 1.7 0.00 0.00 0.00 82 1007.3
20260902021205 63 175 0.9 1.7 0.00 0.00 0.00 82 1007.4
20260902020704 63 135 0.9 1.7 0.00 0.00 0.00 82 1007.3
20260902015205 63 149 0.9 1.7 0.00 0.00 0.00 81 1007.4
20260902014705 64 160 0.9 2.6 0.00 0.00 0.00 81 1007.3
20260902014205 64 152 0.9 2.6 0.00 0.00 0.00 81 1007.3
20260902013204 64 155 0.9 2.6 0.00 0.00 0.00 80 1007.3
20260902011705 64 161 0.9 1.7 0.00 0.00 0.00 79 1007.3
20260902005705 65 155 0.0 1.7 0.00 0.00 0.00 79 1007.3
20260902005204 64 122 0.9 1.7 0.00 0.00 0.00 79 1007.3
20260902004205 64 152 0.0 1.7 0.00 0.00 0.00 78 1007.3
20260902002705 65 149 0.9 2.6 0.00 0.00 0.00 77 1007.3
20260902001704 65 156 0.9 2.6 0.00 0.00 0.00 77 1007.3
20260902001205 65 181 0.9 1.7 0.00 0.00 0.00 77 1007.3
20260902000204 65 166 0.9 2.6 0.00 0.00 0.00 76 1007.3
20260901235705 66 193 0.9 2.6 0.00 0.00 0.00 76 1007.3
20260901235204 66 165 0.9 2.6 0.00 0.00 0.00 75 1007.3
20260901234705 66 163 0.9 1.7 0.00 0.00 0.00 74 1007.3
20260901234205 66 164 0.9 2.6 0.00 0.00 0.00 74 1007.4
20260901232705 66 147 0.9 2.6 0.00 0.00 0.00 73 1007.3
20260901231705 67 156 0.9 2.6 0.00 0.00 0.00 72 1007.3
20260901230704 67 177 0.9 1.7 0.00 0.00 0.00 73 1007.3
20260901230204 67 172 0.9 2.6 0.00 0.00 0.00 73 1007.3
20260901225705 67 155 0.9 1.7 0.00 0.00 0.00 72 1007.3
20260901223205 67 144 0.9 1.7 0.00 0.00 0.00 74 1007.3
20260901222704 67 156 0.9 2.6 0.00 0.00 0.00 73 1007.3
20260901221705 67 175 0.9 1.7 0.00 0.00 0.00 72 1007.3
20260901221205 68 153 0.9 1.7 0.00 0.00 0.00 73 1007.4
20260901220705 67 137 0.9 1.7 0.00 0.00 0.00 72 1007.5
20260901215204 67 180 0.0 1.7 0.00 0.00 0.00 72 1007.6
20260901214205 68 162 0.9 2.6 0.00 0.00 0.00 72 1007.5
20260901213705 68 167 0.9 1.7 0.00 0.00 0.00 72 1007.5
20260901212704 67 144 0.9 1.7 0.00 0.00 0.00 74 1007.6
20260901211704 68 144 0.9 1.7 0.00 0.00 0.00 73 1007.7
20260901210204 67 232 0.9 1.7 0.00 0.00 0.00 73 1007.8
20260901205705 67 162 0.9 2.6 0.00 0.00 0.00 72 1007.8
20260901205204 68 159 0.9 2.6 0.00 0.00 0.00 71 1007.8
20260901204204 70 193 0.9 1.7 0.00 0.00 0.00 69 1007.7
20260901203704 70 203 0.9 2.6 0.00 0.00 0.00 69 1007.8
20260901203205 69 172 0.9 2.6 0.00 0.00 0.00 70 1007.8
20260901202705 68 150 0.9 2.6 0.00 0.00 0.00 72 1007.8
20260901202205 68 160 0.9 1.7 0.00 0.00 0.00 72 1007.9
20260901201705 68 154 0.9 2.6 0.00 0.00 0.00 73 1007.9
20260901200705 67 140 0.9 2.6 0.00 0.00 0.00 73 1007.9
20260901200204 67 259 0.9 1.7 0.00 0.00 0.00 74 1007.8
20260901195705 67 191 0.9 2.6 0.00 0.00 0.00 75 1007.9
20260901193705 68 157 0.9 2.6 0.00 0.00 0.00 73 1008.0
20260901193204 68 151 0.9 1.7 0.00 0.00 0.00 74 1008.0
20260901192705 68 171 0.9 2.6 0.00 0.00 0.00 73 1008.0
20260901191204 67 154 0.9 2.6 0.00 0.00 0.00 75 1008.1
20260901190705 66 157 0.9 1.7 0.00 0.00 0.00 76 1008.2
20260901185705 66 170 0.9 1.7 0.00 0.00 0.00 77 1008.2
20260901184705 64 180 0.9 1.7 0.00 0.00 0.00 78 1008.1
20260901184205 64 154 0.9 2.6 0.00 0.00 0.00 80 1008.2
20260901183204 64 146 0.0 0.9 0.00 0.00 0.00 80 1008.2
20260901181204 63 154 0.0 1.7 0.00 0.00 0.00 83 1008.2
20260901180704 63 180 0.0 1.7 0.00 0.00 0.00 83 1008.2
20260901174705 61 180 0.0 1.7 0.00 0.00 0.00 85 1008.1
20260901174205 61 115 0.0 1.7 0.00 0.00 0.00 86 1008.2
20260901173705 61 143 0.0 1.7 0.00 0.00 0.00 86 1008.2
20260901173204 61 155 0.9 1.7 0.00 0.00 0.00 87 1008.1
20260901171204 60 157 0.9 1.7 0.00 0.00 0.00 87 1008.2
20260901170705 60 122 0.9 1.7 0.00 0.00 0.00 88 1008.1
20260901170205 60 140 0.9 1.7 0.00 0.00 0.00 87 1008.1
20260901164205 61 150 0.9 1.7 0.00 0.00 0.00 87 1008.1
20260901163704 61 150 0.0 0.0 0.00 0.00 0.00 87 1008.1
20260901163204 60 147 0.0 0.0 0.00 0.00 0.00 87 1008.1
20260901161704 60 178 0.0 0.0 0.00 0.00 0.00 88 1008.1
20260901161205 60 168 0.0 0.0 0.00 0.00 0.00 88 1008.1
20260901155704 60 165 0.0 0.0 0.00 0.00 0.00 89 1008.1
20260901155205 60 162 0.0 0.0 0.00 0.00 0.00 89 1008.2
20260901154204 59 164 0.0 0.0 0.00 0.00 0.00 90 1008.2
20260901153705 59 160 0.0 0.0 0.00 0.00 0.00 90 1008.3
20260901152704 59 165 0.0 0.0 0.00 0.00 0.00 90 1008.3
20260901152205 59 165 0.0 0.0 0.00 0.00 0.00 90 1008.3
20260901151705 59 121 0.0 0.0 0.00 0.00 0.00 90 1008.3
20260901151204 59 121 0.0 0.0 0.00 0.00 0.00 90 1008.3
20260901150204 59 110 0.0 0.0 0.00 0.00 0.00 91 1008.2
20260901145704 58 110 0.0 0.0 0.00 0.00 0.00 91 1008.2
20260901144704 58 110 0.0 0.0 0.00 0.00 0.00 91 1008.1
20260901142204 57 110 0.0 0.0 0.00 0.00 0.00 91 1008.1
20260901141704 57 110 0.0 0.0 0.00 0.00 0.00 91 1008.1
20260901140705 57 110 0.0 0.0 0.00 0.00 0.00 91 1008.1
20260901140204 56 110 0.0 0.0 0.00 0.00 0.00 90 1008.1
20260901135204 56 110 0.0 0.0 0.00 0.00 0.00 89 1008.0
20260901134205 56 110 0.0 0.0 0.00 0.00 0.00 89 1007.9
20260901132704 56 110 0.0 0.0 0.00 0.00 0.00 89 1007.8
20260901131704 56 110 0.0 0.0 0.00 0.00 0.00 88 1007.7
20260901125205 56 110 0.0 0.0 0.00 0.00 0.00 87 1007.5
20260901124705 56 110 0.0 0.0 0.00 0.00 0.00 87 1007.4
20260901124204 56 110 0.0 0.0 0.00 0.00 0.00 87 1007.4
20260901123704 56 110 0.0 0.0 0.00 0.00 0.00 87 1007.4
20260901121704 56 110 0.0 0.0 0.00 0.00 0.00 86 1007.3
20260901121204 56 110 0.0 0.0 0.00 0.00 0.00 87 1007.3